Theta_e
321 325 327 331 333 331 336 336 332 329 328 327 327 326 324 325 326 325 334 327 334 330 331 329 326 326 325 324 319 316 315 316 315 314 314 323 325 319 318 322 324 322 321 320 319 311 310 308 310
323 328 331 334 336 341 339 334 333 327 327 328 327 324 324 328 331 333 331 327 326 325 326 326 326 327 328 327 323 321 317 314 314 317 322 321 319 316 317 319 324 325 323 323 324 321 312 312 309
323 330 328 334 335 339 339 334 332 329 327 327 327 327 326 328 328 328 329 328 326 325 325 326 328 329 329 327 325 323 320 316 316 324 324 321 316 319 318 317 319 319 325 329 329 327 323 316 319
326 335 335 334 334 333 335 333 331 326 327 326 326 326 327 327 326 328 327 325 325 326 325 328 329 329 326 322 322 321 320 319 321 324 325 324 319 317 319 320 316 315 317 320 326 328 329 324 323
334 337 332 332 334 332 330 331 328 325 326 325 325 326 326 328 328 328 326 325 323 325 326 327 327 325 322 320 317 315 318 317 317 323 324 324 323 321 323 319 316 319 321 321 326 326 328 327 325
334 330 328 329 329 329 327 330 330 328 327 325 327 326 326 326 326 326 323 323 326 324 324 325 324 322 319 319 318 316 315 317 319 318 318 318 318 318 317 317 320 320 320 325 324 326 324 328 324
331 328 329 329 331 328 329 330 329 327 328 325 326 326 328 327 325 322 321 322 323 322 323 324 320 320 321 319 319 319 315 318 323 324 323 322 321 322 322 320 320 321 322 326 326 324 324 325 326
331 326 328 327 328 327 327 327 328 328 328 328 326 327 327 326 325 324 324 323 322 322 322 321 322 322 321 321 321 320 319 325 324 324 324 321 318 319 320 319 319 319 319 321 324 322 323 326 327
330 327 328 328 328 327 328 325 328 326 326 327 327 327 327 327 326 326 326 325 323 322 322 322 322 322 322 321 321 319 322 326 325 325 324 323 320 318 319 319 322 323 323 322 320 323 325 327 327
329 328 331 329 327 326 327 326 327 324 324 325 325 326 325 327 327 325 324 323 323 322 323 322 322 322 322 320 320 320 324 326 326 324 325 321 320 320 319 320 322 324 325 326 324 324 326 326 327
329 330 329 329 329 328 327 327 328 324 323 325 325 326 325 326 326 326 322 322 323 323 323 323 322 321 321 321 320 323 325 326 325 325 325 321 323 322 321 321 322 322 321 322 325 324 324 325 326
328 329 330 330 329 328 327 328 327 326 326 326 325 326 326 326 326 324 323 324 324 323 323 323 322 322 320 315 316 323 324 323 323 325 323 323 323 322 319 324 323 323 323 323 323 324 324 325 320
328 329 329 329 328 328 328 327 326 326 328 328 325 325 325 325 325 323 324 324 324 324 323 323 323 321 317 317 320 324 326 326 326 324 324 323 324 325 320 320 323 323 322 322 323 323 324 324 320
329 329 329 329 329 328 328 328 326 327 328 327 326 325 325 324 324 324 324 324 324 323 323 322 322 320 315 316 321 327 328 327 326 325 325 324 323 325 325 320 321 320 320 321 323 323 324 322 319
322 325 327 327 326 324 326 325 325 327 327 327 325 325 324 324 324 324 324 324 324 323 323 323 322 319 316 316 325 327 329 329 328 327 326 325 324 324 325 322 322 322 320 321 322 323 323 324 322
320 320 321 322 323 324 324 326 325 327 327 326 326 325 325 324 324 324 324 324 324 323 323 323 321 317 316 316 325 327 329 330 329 327 326 325 325 323 321 320 322 322 321 321 322 323 323 324 324
318 321 321 322 323 325 324 326 326 326 325 325 327 327 326 326 324 324 324 324 324 323 323 323 320 315 317 318 327 328 328 327 328 327 327 325 324 322 321 320 322 322 321 321 321 323 323 324 323
320 320 322 323 324 324 324 325 325 325 325 325 326 327 327 327 326 325 324 324 324 324 324 321 317 318 316 321 327 329 330 328 327 327 326 325 324 323 323 321 322 322 321 322 321 321 322 324 323
321 321 322 323 324 325 325 325 326 325 325 324 325 327 327 327 326 324 324 324 324 325 324 320 316 319 319 323 328 329 329 328 327 327 327 327 327 325 323 322 322 322 321 322 321 321 322 324 324
319 322 322 322 323 323 323 324 325 325 324 324 325 326 326 326 326 325 324 325 325 325 323 320 320 320 323 323 328 328 329 328 327 327 327 327 328 325 325 323 322 321 322 322 322 323 323 323 325
319 320 323 323 323 323 323 324 324 326 325 326 326 326 325 326 326 325 325 325 325 325 323 319 323 322 326 324 327 327 327 328 327 328 327 326 325 324 324 323 322 321 321 322 322 324 325 325 327
320 321 323 325 325 324 323 325 322 324 324 323 324 325 326 326 325 325 324 325 325 325 323 323 325 326 324 327 324 326 330 329 327 328 326 326 323 323 323 323 321 322 322 321 324 324 324 325 327
321 321 322 324 325 322 323 322 321 322 324 324 322 324 326 326 325 324 324 325 325 326 324 324 327 327 324 328 330 329 330 326 327 326 326 326 323 323 322 323 323 323 323 324 324 323 325 326 326
321 321 321 322 323 324 324 323 325 323 324 324 322 325 325 324 324 324 325 325 326 325 324 327 327 325 325 330 330 329 329 325 324 325 326 326 325 324 322 323 324 325 325 326 326 325 326 324 327
320 320 322 321 323 326 322 324 324 323 323 323 320 324 324 324 325 325 325 326 327 325 324 326 324 326 325 329 329 328 328 324 324 325 325 326 325 325 323 322 324 325 324 325 325 324 326 323 327
316 316 323 324 324 323 323 324 323 322 323 325 323 324 325 325 325 325 326 327 327 325 323 323 323 326 326 329 328 329 329 326 326 323 325 326 325 324 323 322 324 325 324 324 324 326 326 324 325
316 318 318 321 322 322 322 323 325 323 322 324 325 326 326 326 326 326 326 328 327 324 322 322 325 326 326 327 327 329 329 328 328 325 325 324 324 323 323 321 324 325 324 323 324 325 326 325 326
316 318 320 318 323 324 323 325 324 323 323 326 325 324 326 326 327 327 327 328 326 324 322 321 325 326 325 325 327 329 328 329 327 325 324 323 323 323 322 321 320 321 322 323 324 325 324 328 330
315 317 320 320 319 323 322 322 320 321 320 327 325 326 327 327 327 327 328 328 326 325 322 323 325 325 325 326 328 328 329 331 327 324 324 325 325 324 324 324 324 323 323 324 324 325 328 329 329
316 316 320 322 321 320 320 322 322 321 321 326 325 327 327 327 327 327 328 327 325 325 323 322 325 325 324 325 327 328 329 330 327 326 325 325 325 325 325 325 324 324 324 324 324 326 325 327 328
Wind_Speed
7 8 7 2 2 3 3 6 4 7 2 4 4 8 8 2 3 3 17 14 15 12 15 14 9 6 7 7 8 10 11 12 12 12 12 11 11 11 11 13 13 13 13 13 11 14 14 16 15
7 9 4 0 2 1 5 7 4 5 6 4 5 21 5 1 9 14 19 17 11 11 10 9 8 7 7 8 11 12 14 14 14 15 12 13 16 16 14 15 15 14 14 15 15 12 14 16 17
9 3 2 3 3 5 5 6 10 6 11 8 3 8 10 10 14 13 13 18 15 10 4 6 7 7 7 10 12 14 15 16 16 16 17 18 19 18 18 17 17 18 17 16 17 16 14 16 16
7 2 5 2 8 8 7 11 10 1 5 4 5 6 6 9 19 18 17 12 13 9 5 7 8 8 9 11 15 16 17 17 17 19 19 21 23 21 21 20 20 19 20 20 19 18 18 16 18
7 2 2 4 7 7 10 16 11 3 4 4 2 3 5 17 13 17 16 14 11 10 9 11 10 10 11 12 14 14 15 17 19 21 22 24 23 22 22 23 22 21 21 21 20 21 21 18 18
3 1 1 5 5 5 6 18 4 2 10 5 10 14 11 16 18 19 14 13 14 12 11 14 11 11 11 14 14 13 13 12 15 18 20 22 24 26 27 26 25 25 26 24 24 24 22 21 18
4 3 5 5 14 10 1 11 7 12 4 7 15 7 7 24 20 19 17 18 15 11 13 13 11 11 12 14 15 15 16 14 14 16 20 21 22 26 27 27 27 26 26 26 26 25 24 24 21
7 4 4 6 3 10 4 7 19 11 11 15 11 7 7 27 24 21 18 15 10 10 13 14 10 11 14 15 16 16 17 15 14 16 18 16 16 15 16 17 19 20 22 23 24 24 26 25 23
12 2 8 7 7 10 29 3 28 17 7 9 12 14 18 18 26 25 22 18 14 15 13 11 12 13 13 13 15 18 16 16 16 18 16 20 18 14 14 14 15 14 16 16 19 21 24 24 24
10 6 12 14 9 10 23 14 23 9 15 16 18 15 15 24 30 29 24 23 19 15 15 15 15 12 11 14 16 16 16 17 17 17 16 18 11 12 11 12 11 14 14 16 18 21 22 23 24
12 16 19 24 25 27 25 26 29 11 6 18 18 14 22 27 31 28 22 18 13 18 20 19 15 11 11 15 15 13 14 17 17 14 18 15 11 10 10 11 11 13 15 15 15 18 21 22 24
6 21 30 34 33 29 22 33 26 18 18 27 25 21 25 30 30 26 20 19 21 24 26 23 18 13 11 14 11 9 11 11 13 16 16 13 11 10 11 10 11 11 10 11 13 16 19 21 20
13 25 31 31 30 35 36 25 25 21 27 29 21 19 27 29 26 22 20 20 24 26 27 22 18 13 12 11 6 8 9 9 10 11 14 15 14 13 11 12 14 13 12 12 11 15 19 20 18
18 23 28 29 32 35 27 28 20 26 26 28 29 26 26 29 26 26 28 26 28 28 27 22 15 11 11 7 6 8 9 9 10 11 13 16 17 16 13 12 13 12 14 13 13 13 17 20 18
24 21 20 22 22 21 28 19 14 30 30 30 26 24 25 28 28 28 32 32 30 28 24 18 12 10 8 4 5 8 11 12 14 13 13 14 16 16 16 15 13 11 12 14 16 14 16 18 21
6 4 9 11 16 29 12 24 17 33 30 32 28 27 28 29 29 31 33 31 31 29 24 15 11 8 7 3 6 10 12 15 16 15 13 13 15 15 15 15 13 12 13 13 17 17 16 18 20
5 12 17 13 13 13 9 21 19 33 30 29 32 29 29 33 33 33 34 34 34 29 21 14 10 5 4 3 5 9 13 15 14 14 13 12 11 11 14 12 11 11 11 13 16 19 18 18 19
11 11 5 17 19 8 13 17 20 33 28 30 34 31 30 28 33 34 37 36 32 25 17 12 8 4 3 3 5 8 13 14 14 12 10 10 9 11 11 9 9 10 9 10 17 22 19 19 18
8 7 9 20 24 5 12 15 23 20 18 21 28 32 34 22 24 32 37 33 28 21 15 12 8 5 5 4 7 10 15 16 15 10 11 11 9 9 9 9 9 8 6 7 13 16 19 19 15
12 14 17 20 23 6 17 19 22 12 7 21 29 34 32 19 21 29 36 33 28 20 14 12 8 5 3 3 7 11 14 14 15 9 8 10 12 7 9 8 7 5 4 10 13 15 18 17 16
16 18 17 18 21 16 11 16 9 6 6 13 23 26 20 22 31 36 36 31 25 18 14 12 8 5 2 5 6 9 9 12 13 8 6 10 8 4 8 8 7 6 6 9 12 16 17 17 18
19 17 19 16 12 8 6 7 6 6 5 5 13 15 17 28 34 37 37 31 25 17 14 11 9 5 6 3 4 8 11 14 13 5 6 4 2 6 7 8 9 8 7 10 12 16 18 16 17
18 18 18 20 14 9 22 4 8 6 6 9 10 10 20 31 36 41 37 31 21 17 15 12 9 5 5 5 4 9 11 11 7 3 3 2 2 6 9 10 11 11 9 9 9 15 14 16 17
23 11 12 12 9 11 16 7 14 5 8 5 2 18 31 33 35 36 32 25 20 16 15 13 10 5 3 4 2 9 8 8 7 4 3 4 5 8 12 13 14 11 12 9 9 11 15 12 18
15 10 4 3 4 11 10 7 11 6 8 8 8 20 25 30 33 33 32 27 21 20 17 13 8 6 5 6 5 7 6 7 7 6 6 4 5 9 15 14 15 12 12 9 8 10 13 11 16
20 14 8 7 5 4 6 6 9 9 5 13 18 24 28 30 30 31 31 26 21 20 17 12 8 6 10 9 4 3 6 4 6 8 10 2 5 10 15 14 14 10 12 9 7 10 11 12 16
13 15 21 5 4 2 4 6 9 5 6 6 16 26 30 31 32 33 29 25 21 20 16 11 9 9 11 9 4 2 6 5 6 8 9 5 9 11 15 13 14 10 11 9 8 10 11 13 16
26 5 7 2 10 6 4 4 5 1 7 6 8 16 28 30 32 31 29 26 20 17 14 12 10 11 9 4 5 3 3 6 6 6 6 8 8 8 11 12 13 13 13 12 10 9 11 10 15
11 10 6 5 6 8 3 7 8 13 10 15 13 26 33 34 35 33 30 25 19 17 16 15 12 13 10 6 7 3 1 5 5 6 6 6 8 9 11 11 13 16 16 13 11 13 15 16 15
14 14 10 9 5 2 6 10 3 12 13 15 16 28 33 35 36 32 29 26 23 21 17 16 15 12 10 8 8 6 2 2 3 7 5 5 8 11 12 16 16 18 17 15 14 17 16 17 18
Wind_Direction
158 155 167 204 37 62 266 257 236 292 309 201 143 120 142 117 183 217 146 156 173 186 193 206 209 244 255 256 282 284 282 274 275 275 277 274 262 266 268 269 270 274 283 279 265 250 250 236 235
168 162 179 303 92 97 262 244 285 242 237 178 140 127 103 231 139 152 160 174 199 191 200 221 231 241 256 271 290 287 283 280 280 274 273 267 274 281 273 262 260 263 273 272 272 256 245 248 240
175 201 276 160 183 204 212 248 247 266 197 207 151 123 145 167 173 178 180 179 185 189 231 242 237 231 243 268 274 275 275 275 273 267 266 277 279 279 277 266 262 265 263 262 266 269 255 245 244
184 228 253 177 234 262 240 260 282 276 350 297 167 78 87 165 163 183 175 174 190 204 218 226 227 236 253 275 284 282 275 271 271 270 269 276 278 276 272 270 268 264 263 262 255 263 264 249 246
201 234 264 261 251 256 278 270 252 345 317 89 108 154 120 163 188 177 175 184 206 206 203 212 234 253 283 287 289 290 283 278 271 268 270 275 275 276 268 268 268 268 264 261 253 250 250 248 242
216 265 309 254 247 260 278 286 216 233 277 162 120 146 168 185 182 172 181 198 208 219 213 221 245 256 269 291 296 302 294 284 279 274 272 271 270 267 265 266 265 264 262 256 250 250 249 242 238
164 99 238 265 285 302 213 317 290 246 218 239 168 137 185 180 187 183 200 204 212 226 230 235 248 249 290 298 302 304 311 294 283 281 286 284 278 269 265 266 263 261 257 252 249 244 244 242 235
201 126 269 242 237 279 270 336 327 337 286 284 196 170 189 196 189 191 200 215 221 222 234 238 244 267 283 296 303 300 302 291 291 296 301 299 294 285 271 265 260 259 257 255 250 244 237 235 232
203 146 255 237 227 253 282 358 302 304 316 283 246 240 254 199 186 191 196 209 215 222 236 244 243 254 280 280 289 298 288 283 294 310 312 312 298 290 281 271 255 256 260 252 245 236 235 229 228
188 188 236 235 255 276 287 286 292 297 316 312 314 274 226 188 189 195 204 210 212 222 231 233 232 260 269 283 293 299 290 291 299 303 303 304 297 295 283 273 259 257 262 256 245 233 229 225 225
206 226 242 266 263 269 271 284 284 280 293 295 289 206 183 188 191 202 216 216 223 217 217 218 231 240 276 301 303 302 288 285 284 289 295 293 293 301 281 276 257 254 257 259 244 230 223 222 222
266 242 243 253 264 269 268 277 277 260 279 294 293 240 198 190 197 208 208 211 214 217 209 205 214 248 282 305 307 318 308 301 294 287 288 276 278 288 285 271 268 258 258 255 243 232 221 217 221
234 241 246 254 263 266 270 264 262 257 278 283 287 223 204 207 210 211 210 209 220 215 205 212 234 262 300 305 302 326 346 319 312 287 278 279 285 275 286 279 266 265 265 258 243 229 220 217 216
238 249 253 259 262 266 265 270 258 258 280 277 278 226 209 211 212 207 205 209 211 208 215 222 236 263 298 320 324 323 323 322 318 307 286 279 279 275 275 287 274 261 267 251 237 221 215 220 216
257 257 263 260 254 258 270 269 250 269 270 271 243 224 213 215 206 217 217 217 224 219 217 222 239 262 305 330 317 336 337 324 313 312 299 286 281 273 272 280 272 266 268 248 230 218 218 222 214
301 268 253 245 259 262 240 269 275 270 264 254 240 225 227 220 217 227 219 220 216 216 212 222 240 272 309 311 325 331 319 317 311 302 296 290 278 273 267 265 261 266 265 246 229 219 215 215 211
229 257 260 278 245 260 220 267 269 276 253 238 241 246 241 245 223 223 216 219 215 216 214 226 232 261 299 288 313 317 323 314 307 292 292 285 277 274 265 249 256 267 264 244 229 218 213 209 207
218 237 225 255 257 257 267 265 270 267 251 229 229 238 248 248 237 221 208 209 212 209 215 219 212 234 223 218 269 297 319 326 324 305 297 296 290 272 260 247 261 265 262 248 216 210 213 206 210
238 236 247 262 268 280 269 272 271 262 246 222 222 235 245 250 235 212 202 203 202 206 209 201 205 192 189 213 274 300 309 323 327 306 292 289 301 281 252 233 245 260 252 220 194 199 201 200 204
230 242 248 271 269 260 274 281 286 266 229 221 221 234 244 226 203 194 192 199 206 203 195 195 194 185 171 273 267 300 306 322 331 307 302 302 295 270 248 225 238 216 198 180 183 190 193 200 198
228 231 245 244 277 278 277 280 265 296 236 231 239 248 248 211 183 182 192 199 197 192 193 193 185 175 185 218 281 309 316 330 332 314 297 313 295 255 185 206 197 180 169 174 177 180 188 195 189
235 227 241 251 255 257 141 281 275 242 267 257 282 292 243 193 189 189 192 193 186 188 185 179 184 178 215 232 295 328 335 336 333 314 309 327 318 166 178 178 168 166 161 171 187 195 190 196 194
230 224 235 246 248 261 280 292 267 273 275 271 289 252 195 186 191 191 193 187 182 184 180 179 182 210 238 251 329 340 334 350 350 347 347 16 141 165 164 158 151 152 157 159 173 178 190 196 193
233 241 240 257 244 254 244 214 264 222 228 254 231 194 185 186 186 188 187 181 178 178 176 180 189 212 249 193 265 319 336 6 11 359 327 354 185 173 166 165 161 152 153 148 161 190 185 195 190
216 203 250 288 197 240 214 195 240 226 229 223 197 202 190 187 185 185 180 177 177 177 179 183 199 198 221 207 240 318 336 12 11 6 349 359 153 171 178 176 170 151 154 149 160 174 178 181 179
221 212 202 184 221 234 208 226 257 224 237 231 193 189 183 181 186 181 179 177 179 177 182 187 182 186 182 193 265 326 357 351 14 22 6 12 144 166 174 180 171 163 165 162 167 168 178 175 186
222 211 224 215 320 130 210 282 319 262 139 132 136 160 172 182 184 179 179 181 177 179 186 187 176 184 181 195 271 66 14 18 11 15 23 79 127 144 172 172 176 161 161 170 174 175 170 175 180
220 141 229 305 205 213 265 242 227 161 155 151 157 158 171 179 178 177 180 179 179 183 182 186 182 186 189 196 169 97 34 28 28 22 51 93 120 147 165 173 176 174 166 172 172 171 168 181 178
201 200 198 178 166 192 203 262 195 200 180 172 173 169 176 180 178 178 180 179 181 182 181 179 183 186 185 183 174 145 311 23 52 50 87 99 95 134 149 156 158 159 164 163 162 161 155 165 162
210 204 182 215 231 167 156 257 222 213 173 168 172 176 182 181 178 180 179 180 183 186 182 184 181 188 190 185 168 155 198 31 69 62 79 118 102 123 131 151 148 152 158 158 154 154 155 157 158